Regional Weather Roundup
Issued by NWS

Home | Current Version | Previous Version | Graphics & Text | Print | Product List | Glossary On
Versions: 1 2 3 4 5 6 7 8 9 10 11 12 13 14 15 16 17 18 19 20 21 22 23 24 25 26 27 28 29 30 31 32 33 34 35 36 37 38 39 40 41 42 43 44 45 46 47 48 49 50
000
ASUS45 KSLC 221810
RWRUT

UTAH REGIONAL WEATHER ROUNDUP
NATIONAL WEATHER SERVICE SALT LAKE CITY UT
1200 PM MDT FRI MAY 22 2015

UTZ001>011-023>025-221900-

NORTHERN UTAH

CITY           SKY/WX    TMP DP  RH WIND       PRES   REMARKS
BRIGHAM CITY   PTSUNNY   60  45  57 CALM      29.91F
HILL AFB       CLOUDY    61  46  57 S6        29.91F
LOGAN          SUNNY     59  46  62 CALM      29.90F
OGDEN          PTSUNNY   61  47  59 S6        29.90F
PROVO AIRPORT  CLOUDY    57  41  54 CALM      29.93F
SALT LAKE CITY CLOUDY    61  43  51 SE6       29.90F
VERNAL         CLOUDY    54  43  66 W8        29.98F
WENDOVER       PTSUNNY   61  45  55 CALM      29.91F
HEBER CITY     CLOUDY    45  41  87 CALM      30.01S
WEST JORDAN    PTSUNNY   59  45  58 S9        29.93S

$$

UTZ012>022-026-027-221900-

SOUTHERN/CENTRAL UTAH

CITY           SKY/WX    TMP DP  RH WIND       PRES   REMARKS
BLANDING       MOSUNNY   62  32  31 S16       30.06F
BRYCE CANYON   MOSUNNY   55  25  31 E9G25     30.00F
CEDAR CITY     CLOUDY    59  30  33 VRB3      29.91F
DELTA          MOSUNNY   62  34  35 N3        29.89F
HANKSVILLE     CLOUDY    63  32  31 W9G20     29.91S
MILFORD        MOSUNNY   66  28  24 CALM      29.87F
MOAB/CYNLANDS  PTSUNNY   68  35  29 E10G17    29.87F
PRICE          PTSUNNY   62  36  37 NE6       29.95F
ST GEORGE      CLOUDY    72  30  21 NW8       29.87F
KANAB          MOSUNNY   63  30  29 SW5       29.95F

$$

REGIONAL REPORTS     COLORADO/ARIZONA

CITY           SKY/WX    TMP DP  RH WIND       PRES   REMARKS
CRAIG, CO      LGT RAIN  51  43  74 MISG      30.03S
GRAND JUNCTION CLOUDY    61  42  49 NW14      29.93F
RIFLE          PTSUNNY   57  42  57 CALM      29.99F
MONTROSE       MOSUNNY   65  33  30 VRB6      29.98F
CORTEZ         PTSUNNY   63  34  33 S13G18    30.01S
PAGE, AZ       NOT AVBL
GRAND CANYON   LGT RAIN  48  35  60 W12       30.00S
KINGMAN        CLOUDY    63  33  32 SW16G26   29.91R
FLAGSTAFF      SUNNY     54  25  32 SW16G29   30.02F

$$

REGIONAL REPORTS    NEVADA/IDAHO/WYOMING

CITY           SKY/WX    TMP DP  RH WIND       PRES   REMARKS
LAS VEGAS, NV  CLOUDY    71  38  29 S5        29.82F
ELY            CLOUDY    55  31  39 E3        29.96S
ELKO           LGT RAIN  57  41  55 W12       29.92F
POCATELLO, ID  PTSUNNY   61  50  67 NW7       29.91F
BURLEY         MOSUNNY   62  48  60 VRB5      29.89F
EVANSTON, WY   PTSUNNY   48  41  76 VRB5      29.99F
ROCK SPRINGS   CLOUDY    51  41  68 E7        29.99S
KEMMERER       CLOUDY    52  41  66 SE6       30.00F

$$



USA.gov is the U.S. government's official web portal to all federal, state and local government web resources and services.